owner,sensor,date,latitude,longitude,vertical_datum,mass_concentration_of_oxygen_in_sea_water,qcFlag 
SCCF RECON,ioos:station:SCCF:13:1,2012-11-01T00:00:00Z,26.5255,-82.0032,2.535,7.54,1111122 
SCCF RECON,ioos:station:SCCF:13:1,2012-11-01T01:00:00Z,26.5255,-82.0032,2.53,7.26,1111122 
SCCF RECON,ioos:station:SCCF:13:1,2012-11-01T02:00:00Z,26.5255,-82.0032,2.596,6.95,1111122 
SCCF RECON,ioos:station:SCCF:13:1,2012-11-01T03:00:00Z,26.5255,-82.0032,2.7,6.95,1111122 
SCCF RECON,ioos:station:SCCF:13:1,2012-11-01T04:00:00Z,26.5255,-82.0032,2.79,7.56,1111122 
SCCF RECON,ioos:station:SCCF:13:1,2012-11-01T05:00:00Z,26.5255,-82.0032,2.86,7.48,1111122 
SCCF RECON,ioos:station:SCCF:13:1,2012-11-01T06:00:00Z,26.5255,-82.0032,2.897,7.36,1111122 
SCCF RECON,ioos:station:SCCF:13:1,2012-11-01T07:00:00Z,26.5255,-82.0032,2.91,7.17,1111122 
SCCF RECON,ioos:station:SCCF:13:1,2012-11-01T08:00:00Z,26.5255,-82.0032,2.86,6.84,1111122 
SCCF RECON,ioos:station:SCCF:13:1,2012-11-01T09:00:00Z,26.5255,-82.0032,2.75,6.77,1111122 
SCCF RECON,ioos:station:SCCF:13:1,2012-11-01T10:00:00Z,26.5255,-82.0032,2.62,6.74,1111122 
SCCF RECON,ioos:station:SCCF:13:1,2012-11-01T11:00:00Z,26.5255,-82.0032,2.53,6.87,1111122 
SCCF RECON,ioos:station:SCCF:13:1,2012-11-01T12:00:00Z,26.5255,-82.0032,2.43,7.02,1111122 
SCCF RECON,ioos:station:SCCF:13:1,2012-11-01T13:00:00Z,26.5255,-82.0032,2.341,7.0,1111122 
SCCF RECON,ioos:station:SCCF:13:1,2012-11-01T14:00:00Z,26.5255,-82.0032,2.3,6.95,1111122 
SCCF RECON,ioos:station:SCCF:13:1,2012-11-01T15:00:00Z,26.5255,-82.0032,2.361,6.97,1111122 
SCCF RECON,ioos:station:SCCF:13:1,2012-11-01T16:00:00Z,26.5255,-82.0032,2.5,6.88,1111122 
SCCF RECON,ioos:station:SCCF:13:1,2012-11-01T17:00:00Z,26.5255,-82.0032,2.59,6.77,1111122 
SCCF RECON,ioos:station:SCCF:13:1,2012-11-01T18:00:00Z,26.5255,-82.0032,2.64,6.9,1111122 
SCCF RECON,ioos:station:SCCF:13:1,2012-11-01T19:00:00Z,26.5255,-82.0032,2.69,6.98,1111122 
SCCF RECON,ioos:station:SCCF:13:1,2012-11-01T20:00:00Z,26.5255,-82.0032,2.713,7.39,1111122 
SCCF RECON,ioos:station:SCCF:13:1,2012-11-01T21:00:00Z,26.5255,-82.0032,2.7,7.59,1111122 
SCCF RECON,ioos:station:SCCF:13:1,2012-11-01T22:00:00Z,26.5255,-82.0032,2.658,7.06,1111122 
SCCF RECON,ioos:station:SCCF:13:1,2012-11-01T23:00:00Z,26.5255,-82.0032,2.59,7.48,1111122 
SCCF RECON,ioos:station:SCCF:13:1,2012-11-02T00:00:00Z,26.5255,-82.0032,2.56,6.97,1111122 
SCCF RECON,ioos:station:SCCF:13:1,2012-11-02T01:00:00Z,26.5255,-82.0032,2.55,6.82,1111122 
SCCF RECON,ioos:station:SCCF:13:1,2012-11-02T02:00:00Z,26.5255,-82.0032,2.589,6.7,1111122 
SCCF RECON,ioos:station:SCCF:13:1,2012-11-02T03:00:00Z,26.5255,-82.0032,2.66,6.27,1111122 
SCCF RECON,ioos:station:SCCF:13:1,2012-11-02T04:00:00Z,26.5255,-82.0032,2.741,6.7,1111122 
SCCF RECON,ioos:station:SCCF:13:1,2012-11-02T05:00:00Z,26.5255,-82.0032,2.81,7.02,1111122 
SCCF RECON,ioos:station:SCCF:13:1,2012-11-02T06:00:00Z,26.5255,-82.0032,2.86,7.09,1111122 
SCCF RECON,ioos:station:SCCF:13:1,2012-11-02T07:00:00Z,26.5255,-82.0032,2.88,7.08,1111122 
SCCF RECON,ioos:station:SCCF:13:1,2012-11-02T08:00:00Z,26.5255,-82.0032,2.86,6.89,1111122 
SCCF RECON,ioos:station:SCCF:13:1,2012-11-02T09:00:00Z,26.5255,-82.0032,2.77,6.77,1111122 
SCCF RECON,ioos:station:SCCF:13:1,2012-11-02T10:00:00Z,26.5255,-82.0032,2.64,6.66,1111122 
SCCF RECON,ioos:station:SCCF:13:1,2012-11-02T11:00:00Z,26.5255,-82.0032,2.53,6.64,1111122 
SCCF RECON,ioos:station:SCCF:13:1,2012-11-02T12:00:00Z,26.5255,-82.0032,2.446,6.74,1111122 
SCCF RECON,ioos:station:SCCF:13:1,2012-11-02T13:00:00Z,26.5255,-82.0032,2.35,6.81,1111122 
SCCF RECON,ioos:station:SCCF:13:1,2012-11-02T14:00:00Z,26.5255,-82.0032,2.29,6.71,1111122 
SCCF RECON,ioos:station:SCCF:13:1,2012-11-02T15:00:00Z,26.5255,-82.0032,2.251,6.83,1111122 
SCCF RECON,ioos:station:SCCF:13:1,2012-11-02T16:00:00Z,26.5255,-82.0032,2.332,6.92,1111122 
SCCF RECON,ioos:station:SCCF:13:1,2012-11-02T17:00:00Z,26.5255,-82.0032,2.44,6.94,1111122 
SCCF RECON,ioos:station:SCCF:13:1,2012-11-02T18:00:00Z,26.5255,-82.0032,2.501,6.74,1111122 
SCCF RECON,ioos:station:SCCF:13:1,2012-11-02T19:00:00Z,26.5255,-82.0032,2.56,6.8,1111122 
SCCF RECON,ioos:station:SCCF:13:1,2012-11-02T20:00:00Z,26.5255,-82.0032,2.608,6.67,1111122 
SCCF RECON,ioos:station:SCCF:13:1,2012-11-02T21:00:00Z,26.5255,-82.0032,2.613,7.28,1111122 
SCCF RECON,ioos:station:SCCF:13:1,2012-11-02T22:00:00Z,26.5255,-82.0032,2.59,7.5,1111122 
SCCF RECON,ioos:station:SCCF:13:1,2012-11-02T23:00:00Z,26.5255,-82.0032,2.56,7.0,1111122 
SCCF RECON,ioos:station:SCCF:13:1,2012-11-03T00:00:00Z,26.5255,-82.0032,2.51,7.22,1111122 
SCCF RECON,ioos:station:SCCF:13:1,2012-11-03T01:00:00Z,26.5255,-82.0032,2.48,6.72,1111122 
SCCF RECON,ioos:station:SCCF:13:1,2012-11-03T02:00:00Z,26.5255,-82.0032,2.471,6.66,1111122 
SCCF RECON,ioos:station:SCCF:13:1,2012-11-03T03:00:00Z,26.5255,-82.0032,2.523,6.52,1111122 
SCCF RECON,ioos:station:SCCF:13:1,2012-11-03T04:00:00Z,26.5255,-82.0032,2.61,6.17,1111122 
SCCF RECON,ioos:station:SCCF:13:1,2012-11-03T05:00:00Z,26.5255,-82.0032,2.68,6.8,1111122 
SCCF RECON,ioos:station:SCCF:13:1,2012-11-03T06:00:00Z,26.5255,-82.0032,2.73,6.8,1111122 
SCCF RECON,ioos:station:SCCF:13:1,2012-11-03T07:00:00Z,26.5255,-82.0032,2.77,7.02,1111122 
SCCF RECON,ioos:station:SCCF:13:1,2012-11-03T08:00:00Z,26.5255,-82.0032,2.789,6.96,1111122 
SCCF RECON,ioos:station:SCCF:13:1,2012-11-03T09:00:00Z,26.5255,-82.0032,2.75,6.77,1111122 
SCCF RECON,ioos:station:SCCF:13:1,2012-11-03T10:00:00Z,26.5255,-82.0032,2.657,6.64,1111122 
SCCF RECON,ioos:station:SCCF:13:1,2012-11-03T11:00:00Z,26.5255,-82.0032,2.54,6.51,1111122 
SCCF RECON,ioos:station:SCCF:13:1,2012-11-03T12:00:00Z,26.5255,-82.0032,2.44,6.65,1111122 
SCCF RECON,ioos:station:SCCF:13:1,2012-11-03T13:00:00Z,26.5255,-82.0032,2.369,6.83,1111122 
SCCF RECON,ioos:station:SCCF:13:1,2012-11-03T14:00:00Z,26.5255,-82.0032,2.29,6.74,1111122 
SCCF RECON,ioos:station:SCCF:13:1,2012-11-03T15:00:00Z,26.5255,-82.0032,2.239,6.59,1111122 
SCCF RECON,ioos:station:SCCF:13:1,2012-11-03T16:00:00Z,26.5255,-82.0032,2.24,6.67,1111122 
SCCF RECON,ioos:station:SCCF:13:1,2012-11-03T17:00:00Z,26.5255,-82.0032,2.35,6.74,1111122 
SCCF RECON,ioos:station:SCCF:13:1,2012-11-03T18:00:00Z,26.5255,-82.0032,2.44,6.68,1111122 
SCCF RECON,ioos:station:SCCF:13:1,2012-11-03T19:00:00Z,26.5255,-82.0032,2.507,6.58,1111122 
SCCF RECON,ioos:station:SCCF:13:1,2012-11-03T20:00:00Z,26.5255,-82.0032,2.55,6.4,1111122 
SCCF RECON,ioos:station:SCCF:13:1,2012-11-03T21:00:00Z,26.5255,-82.0032,2.58,7.12,1111122 
SCCF RECON,ioos:station:SCCF:13:1,2012-11-03T22:00:00Z,26.5255,-82.0032,2.6,7.3,1111122 
SCCF RECON,ioos:station:SCCF:13:1,2012-11-03T23:00:00Z,26.5255,-82.0032,2.58,7.32,1111122 
SCCF RECON,ioos:station:SCCF:13:1,2012-11-04T00:00:00Z,26.5255,-82.0032,2.55,6.89,1111122 
SCCF RECON,ioos:station:SCCF:13:1,2012-11-04T01:00:00Z,26.5255,-82.0032,2.53,7.14,1111122 
SCCF RECON,ioos:station:SCCF:13:1,2012-11-04T02:00:00Z,26.5255,-82.0032,2.52,7.04,1111122 
SCCF RECON,ioos:station:SCCF:13:1,2012-11-04T03:00:00Z,26.5255,-82.0032,2.55,6.5,1111122 
SCCF RECON,ioos:station:SCCF:13:1,2012-11-04T04:00:00Z,26.5255,-82.0032,2.6,6.18,1111122 
SCCF RECON,ioos:station:SCCF:13:1,2012-11-04T05:00:00Z,26.5255,-82.0032,2.66,6.2,1111122 
SCCF RECON,ioos:station:SCCF:13:1,2012-11-04T06:00:00Z,26.5255,-82.0032,2.72,6.68,1111122 
SCCF RECON,ioos:station:SCCF:13:1,2012-11-04T07:00:00Z,26.5255,-82.0032,2.77,6.89,1111122 
SCCF RECON,ioos:station:SCCF:13:1,2012-11-04T08:00:00Z,26.5255,-82.0032,2.79,6.78,1111122 
SCCF RECON,ioos:station:SCCF:13:1,2012-11-04T09:00:00Z,26.5255,-82.0032,2.78,6.67,1111122 
SCCF RECON,ioos:station:SCCF:13:1,2012-11-04T10:00:00Z,26.5255,-82.0032,2.73,6.52,1111122 
SCCF RECON,ioos:station:SCCF:13:1,2012-11-04T11:00:00Z,26.5255,-82.0032,2.64,6.59,1111122 
SCCF RECON,ioos:station:SCCF:13:1,2012-11-04T12:00:00Z,26.5255,-82.0032,2.53,6.28,1111122 
SCCF RECON,ioos:station:SCCF:13:1,2012-11-04T13:00:00Z,26.5255,-82.0032,2.44,6.48,1111122 
SCCF RECON,ioos:station:SCCF:13:1,2012-11-04T14:00:00Z,26.5255,-82.0032,2.36,6.67,1111122 
SCCF RECON,ioos:station:SCCF:13:1,2012-11-04T15:00:00Z,26.5255,-82.0032,2.286,6.51,1111122 
SCCF RECON,ioos:station:SCCF:13:1,2012-11-04T16:00:00Z,26.5255,-82.0032,2.254,6.43,1111122 
SCCF RECON,ioos:station:SCCF:13:1,2012-11-04T17:00:00Z,26.5255,-82.0032,2.312,6.47,1111122 
SCCF RECON,ioos:station:SCCF:13:1,2012-11-04T18:00:00Z,26.5255,-82.0032,2.415,6.42,1111122 
SCCF RECON,ioos:station:SCCF:13:1,2012-11-04T19:00:00Z,26.5255,-82.0032,2.475,6.36,1111122 
SCCF RECON,ioos:station:SCCF:13:1,2012-11-04T20:00:00Z,26.5255,-82.0032,2.517,6.41,1111122 
SCCF RECON,ioos:station:SCCF:13:1,2012-11-04T21:00:00Z,26.5255,-82.0032,2.56,6.27,1111122 
SCCF RECON,ioos:station:SCCF:13:1,2012-11-04T22:00:00Z,26.5255,-82.0032,2.59,6.91,1111122 
SCCF RECON,ioos:station:SCCF:13:1,2012-11-04T23:00:00Z,26.5255,-82.0032,2.6,6.92,1111122 
SCCF RECON,ioos:station:SCCF:13:1,2012-11-05T00:00:00Z,26.5255,-82.0032,2.6,7.03,1111122 
SCCF RECON,ioos:station:SCCF:13:1,2012-11-05T01:00:00Z,26.5255,-82.0032,2.58,6.58,1111122 
SCCF RECON,ioos:station:SCCF:13:1,2012-11-05T02:00:00Z,26.5255,-82.0032,2.54,6.77,1111122 
SCCF RECON,ioos:station:SCCF:13:1,2012-11-05T03:00:00Z,26.5255,-82.0032,2.55,6.81,1111122 
SCCF RECON,ioos:station:SCCF:13:1,2012-11-05T04:00:00Z,26.5255,-82.0032,2.55,6.4,1111122 
SCCF RECON,ioos:station:SCCF:13:1,2012-11-05T05:00:00Z,26.5255,-82.0032,2.58,5.62,1111122 
SCCF RECON,ioos:station:SCCF:13:1,2012-11-05T06:00:00Z,26.5255,-82.0032,2.62,5.95,1111122 
SCCF RECON,ioos:station:SCCF:13:1,2012-11-05T07:00:00Z,26.5255,-82.0032,2.68,6.48,1111122 
SCCF RECON,ioos:station:SCCF:13:1,2012-11-05T08:00:00Z,26.5255,-82.0032,2.72,6.43,1111122 
SCCF RECON,ioos:station:SCCF:13:1,2012-11-05T09:00:00Z,26.5255,-82.0032,2.73,6.48,1111122 
SCCF RECON,ioos:station:SCCF:13:1,2012-11-05T10:00:00Z,26.5255,-82.0032,2.71,6.29,1111122 
SCCF RECON,ioos:station:SCCF:13:1,2012-11-05T11:00:00Z,26.5255,-82.0032,2.67,6.16,1111122 
SCCF RECON,ioos:station:SCCF:13:1,2012-11-05T12:00:00Z,26.5255,-82.0032,2.57,6.26,1111122 
SCCF RECON,ioos:station:SCCF:13:1,2012-11-05T13:00:00Z,26.5255,-82.0032,2.46,6.06,1111122 
SCCF RECON,ioos:station:SCCF:13:1,2012-11-05T14:00:00Z,26.5255,-82.0032,2.39,6.07,1111122 
SCCF RECON,ioos:station:SCCF:13:1,2012-11-05T15:00:00Z,26.5255,-82.0032,2.31,6.25,1111122 
SCCF RECON,ioos:station:SCCF:13:1,2012-11-05T16:00:00Z,26.5255,-82.0032,2.246,6.28,1111122 
SCCF RECON,ioos:station:SCCF:13:1,2012-11-05T17:00:00Z,26.5255,-82.0032,2.22,6.2,1111122 
SCCF RECON,ioos:station:SCCF:13:1,2012-11-05T18:00:00Z,26.5255,-82.0032,2.278,6.2,1111122 
SCCF RECON,ioos:station:SCCF:13:1,2012-11-05T19:00:00Z,26.5255,-82.0032,2.38,6.11,1111122 
SCCF RECON,ioos:station:SCCF:13:1,2012-11-05T20:00:00Z,26.5255,-82.0032,2.44,6.25,1111122 
SCCF RECON,ioos:station:SCCF:13:1,2012-11-05T21:00:00Z,26.5255,-82.0032,2.49,6.22,1111122 
SCCF RECON,ioos:station:SCCF:13:1,2012-11-05T22:00:00Z,26.5255,-82.0032,2.54,6.15,1111122 
SCCF RECON,ioos:station:SCCF:13:1,2012-11-05T23:00:00Z,26.5255,-82.0032,2.57,6.59,1111122 
SCCF RECON,ioos:station:SCCF:13:1,2012-11-06T00:00:00Z,26.5255,-82.0032,2.58,6.45,1111122 
SCCF RECON,ioos:station:SCCF:13:1,2012-11-06T01:00:00Z,26.5255,-82.0032,2.58,6.19,1111122 
SCCF RECON,ioos:station:SCCF:13:1,2012-11-06T02:00:00Z,26.5255,-82.0032,2.55,6.22,1111122 
SCCF RECON,ioos:station:SCCF:13:1,2012-11-06T03:00:00Z,26.5255,-82.0032,2.54,6.25,1111122 
SCCF RECON,ioos:station:SCCF:13:1,2012-11-06T04:00:00Z,26.5255,-82.0032,2.52,6.31,1111122 
SCCF RECON,ioos:station:SCCF:13:1,2012-11-06T05:00:00Z,26.5255,-82.0032,2.53,5.75,1111122 
SCCF RECON,ioos:station:SCCF:13:1,2012-11-06T06:00:00Z,26.5255,-82.0032,2.54,5.42,1111122 
SCCF RECON,ioos:station:SCCF:13:1,2012-11-06T07:00:00Z,26.5255,-82.0032,2.58,5.3,1111122 
SCCF RECON,ioos:station:SCCF:13:1,2012-11-06T08:00:00Z,26.5255,-82.0032,2.639,5.96,1111122 
SCCF RECON,ioos:station:SCCF:13:1,2012-11-06T09:00:00Z,26.5255,-82.0032,2.69,5.93,1111122 
SCCF RECON,ioos:station:SCCF:13:1,2012-11-06T10:00:00Z,26.5255,-82.0032,2.73,6.04,1111122 
SCCF RECON,ioos:station:SCCF:13:1,2012-11-06T11:00:00Z,26.5255,-82.0032,2.73,6.01,1111122 
SCCF RECON,ioos:station:SCCF:13:1,2012-11-06T12:00:00Z,26.5255,-82.0032,2.7,5.94,1111122 
SCCF RECON,ioos:station:SCCF:13:1,2012-11-06T13:00:00Z,26.5255,-82.0032,2.63,5.85,1111122 
SCCF RECON,ioos:station:SCCF:13:1,2012-11-06T14:00:00Z,26.5255,-82.0032,2.53,5.69,1111122 
SCCF RECON,ioos:station:SCCF:13:1,2012-11-06T15:00:00Z,26.5255,-82.0032,2.442,5.69,1111122 
SCCF RECON,ioos:station:SCCF:13:1,2012-11-06T16:00:00Z,26.5255,-82.0032,2.391,5.92,1111122 
SCCF RECON,ioos:station:SCCF:13:1,2012-11-06T17:00:00Z,26.5255,-82.0032,2.351,6.09,1111122 
SCCF RECON,ioos:station:SCCF:13:1,2012-11-06T18:00:00Z,26.5255,-82.0032,2.35,6.0,1111122 
SCCF RECON,ioos:station:SCCF:13:1,2012-11-06T19:00:00Z,26.5255,-82.0032,2.36,5.93,1111122 
SCCF RECON,ioos:station:SCCF:13:1,2012-11-06T20:00:00Z,26.5255,-82.0032,2.4,5.85,1111122 
SCCF RECON,ioos:station:SCCF:13:1,2012-11-06T21:00:00Z,26.5255,-82.0032,2.478,5.54,1111122 
SCCF RECON,ioos:station:SCCF:13:1,2012-11-06T22:00:00Z,26.5255,-82.0032,2.57,5.79,1111122 
SCCF RECON,ioos:station:SCCF:13:1,2012-11-06T23:00:00Z,26.5255,-82.0032,2.63,5.67,1111122 
SCCF RECON,ioos:station:SCCF:13:1,2012-11-07T00:00:00Z,26.5255,-82.0032,2.65,5.87,1111122 
SCCF RECON,ioos:station:SCCF:13:1,2012-11-07T01:00:00Z,26.5255,-82.0032,2.65,5.99,1111122 
SCCF RECON,ioos:station:SCCF:13:1,2012-11-07T02:00:00Z,26.5255,-82.0032,2.62,5.83,1111122 
SCCF RECON,ioos:station:SCCF:13:1,2012-11-07T03:00:00Z,26.5255,-82.0032,2.6,5.84,1111122 
SCCF RECON,ioos:station:SCCF:13:1,2012-11-07T04:00:00Z,26.5255,-82.0032,2.56,5.87,1111122 
SCCF RECON,ioos:station:SCCF:13:1,2012-11-07T05:00:00Z,26.5255,-82.0032,2.52,5.61,1111122 
SCCF RECON,ioos:station:SCCF:13:1,2012-11-07T06:00:00Z,26.5255,-82.0032,2.443,5.5,1111122 
SCCF RECON,ioos:station:SCCF:13:1,2012-11-07T07:00:00Z,26.5255,-82.0032,2.4,5.67,1111122 
SCCF RECON,ioos:station:SCCF:13:1,2012-11-07T08:00:00Z,26.5255,-82.0032,2.44,5.69,1111122 
SCCF RECON,ioos:station:SCCF:13:1,2012-11-07T09:00:00Z,26.5255,-82.0032,2.52,4.95,1111122 
SCCF RECON,ioos:station:SCCF:13:1,2012-11-07T10:00:00Z,26.5255,-82.0032,2.58,5.28,1111122 
SCCF RECON,ioos:station:SCCF:13:1,2012-11-07T11:00:00Z,26.5255,-82.0032,2.6,5.5,1111122 
SCCF RECON,ioos:station:SCCF:13:1,2012-11-07T12:00:00Z,26.5255,-82.0032,2.571,5.36,1111122 
SCCF RECON,ioos:station:SCCF:13:1,2012-11-07T13:00:00Z,26.5255,-82.0032,2.52,5.26,1111122 
SCCF RECON,ioos:station:SCCF:13:1,2012-11-07T14:00:00Z,26.5255,-82.0032,2.44,5.5,1111122 
SCCF RECON,ioos:station:SCCF:13:1,2012-11-07T15:00:00Z,26.5255,-82.0032,2.36,5.44,1111122 
SCCF RECON,ioos:station:SCCF:13:1,2012-11-07T16:00:00Z,26.5255,-82.0032,2.28,6.11,1111122 
SCCF RECON,ioos:station:SCCF:13:1,2012-11-07T17:00:00Z,26.5255,-82.0032,2.23,6.18,1111122 
SCCF RECON,ioos:station:SCCF:13:1,2012-11-07T18:00:00Z,26.5255,-82.0032,2.178,6.37,1111122 
SCCF RECON,ioos:station:SCCF:13:1,2012-11-07T19:00:00Z,26.5255,-82.0032,2.152,6.44,1111122 
SCCF RECON,ioos:station:SCCF:13:1,2012-11-07T20:00:00Z,26.5255,-82.0032,2.17,6.46,1111122 
SCCF RECON,ioos:station:SCCF:13:1,2012-11-07T21:00:00Z,26.5255,-82.0032,2.231,6.49,1111122 
SCCF RECON,ioos:station:SCCF:13:1,2012-11-07T22:00:00Z,26.5255,-82.0032,2.319,6.31,1111122 
SCCF RECON,ioos:station:SCCF:13:1,2012-11-07T23:00:00Z,26.5255,-82.0032,2.38,6.45,1111122 
SCCF RECON,ioos:station:SCCF:13:1,2012-11-08T00:00:00Z,26.5255,-82.0032,2.45,6.14,1111122 
SCCF RECON,ioos:station:SCCF:13:1,2012-11-08T01:00:00Z,26.5255,-82.0032,2.52,6.12,1111122 
SCCF RECON,ioos:station:SCCF:13:1,2012-11-08T02:00:00Z,26.5255,-82.0032,2.56,6.0,1111122 
SCCF RECON,ioos:station:SCCF:13:1,2012-11-08T03:00:00Z,26.5255,-82.0032,2.55,6.02,1111122 
SCCF RECON,ioos:station:SCCF:13:1,2012-11-08T04:00:00Z,26.5255,-82.0032,2.48,5.74,1111122 
SCCF RECON,ioos:station:SCCF:13:1,2012-11-08T05:00:00Z,26.5255,-82.0032,2.42,5.74,1111122 
SCCF RECON,ioos:station:SCCF:13:1,2012-11-08T06:00:00Z,26.5255,-82.0032,2.383,5.73,1111122 
SCCF RECON,ioos:station:SCCF:13:1,2012-11-08T07:00:00Z,26.5255,-82.0032,2.37,5.82,1111122 
SCCF RECON,ioos:station:SCCF:13:1,2012-11-08T08:00:00Z,26.5255,-82.0032,2.39,5.92,1111122 
SCCF RECON,ioos:station:SCCF:13:1,2012-11-08T09:00:00Z,26.5255,-82.0032,2.42,5.34,1111122 
SCCF RECON,ioos:station:SCCF:13:1,2012-11-08T10:00:00Z,26.5255,-82.0032,2.46,5.2,1111122 
SCCF RECON,ioos:station:SCCF:13:1,2012-11-08T11:00:00Z,26.5255,-82.0032,2.47,5.41,1111122 
SCCF RECON,ioos:station:SCCF:13:1,2012-11-08T12:00:00Z,26.5255,-82.0032,2.53,5.52,1111122 
SCCF RECON,ioos:station:SCCF:13:1,2012-11-08T13:00:00Z,26.5255,-82.0032,2.547,5.53,1111122 
SCCF RECON,ioos:station:SCCF:13:1,2012-11-08T14:00:00Z,26.5255,-82.0032,2.542,5.41,1111122 
SCCF RECON,ioos:station:SCCF:13:1,2012-11-08T15:00:00Z,26.5255,-82.0032,2.499,5.56,1111122 
SCCF RECON,ioos:station:SCCF:13:1,2012-11-08T16:00:00Z,26.5255,-82.0032,2.404,5.71,1111122 
SCCF RECON,ioos:station:SCCF:13:1,2012-11-08T17:00:00Z,26.5255,-82.0032,2.31,6.45,1111122 
SCCF RECON,ioos:station:SCCF:13:1,2012-11-08T18:00:00Z,26.5255,-82.0032,2.239,6.76,1111122 
SCCF RECON,ioos:station:SCCF:13:1,2012-11-08T19:00:00Z,26.5255,-82.0032,2.183,6.89,1111122 
SCCF RECON,ioos:station:SCCF:13:1,2012-11-08T20:00:00Z,26.5255,-82.0032,2.17,7.01,1111122 
SCCF RECON,ioos:station:SCCF:13:1,2012-11-08T21:00:00Z,26.5255,-82.0032,2.2,7.18,1111122 
SCCF RECON,ioos:station:SCCF:13:1,2012-11-08T22:00:00Z,26.5255,-82.0032,2.29,7.09,1111122 
SCCF RECON,ioos:station:SCCF:13:1,2012-11-08T23:00:00Z,26.5255,-82.0032,2.39,6.22,1111122 
SCCF RECON,ioos:station:SCCF:13:1,2012-11-09T00:00:00Z,26.5255,-82.0032,2.48,6.55,1111122 
SCCF RECON,ioos:station:SCCF:13:1,2012-11-09T01:00:00Z,26.5255,-82.0032,2.54,6.68,1111122 
SCCF RECON,ioos:station:SCCF:13:1,2012-11-09T02:00:00Z,26.5255,-82.0032,2.57,6.68,1111122 
SCCF RECON,ioos:station:SCCF:13:1,2012-11-09T03:00:00Z,26.5255,-82.0032,2.565,6.63,1111122 
SCCF RECON,ioos:station:SCCF:13:1,2012-11-09T04:00:00Z,26.5255,-82.0032,2.513,6.58,1111122 
SCCF RECON,ioos:station:SCCF:13:1,2012-11-09T05:00:00Z,26.5255,-82.0032,2.43,6.24,1111122 
SCCF RECON,ioos:station:SCCF:13:1,2012-11-09T06:00:00Z,26.5255,-82.0032,2.35,6.37,1111122 
SCCF RECON,ioos:station:SCCF:13:1,2012-11-09T07:00:00Z,26.5255,-82.0032,2.265,6.67,1111122 
SCCF RECON,ioos:station:SCCF:13:1,2012-11-09T08:00:00Z,26.5255,-82.0032,2.21,6.83,1111122 
SCCF RECON,ioos:station:SCCF:13:1,2012-11-09T09:00:00Z,26.5255,-82.0032,2.2,7.01,1111122 
SCCF RECON,ioos:station:SCCF:13:1,2012-11-09T10:00:00Z,26.5255,-82.0032,2.25,7.05,1111122 
SCCF RECON,ioos:station:SCCF:13:1,2012-11-09T11:00:00Z,26.5255,-82.0032,2.37,6.97,1111122 
SCCF RECON,ioos:station:SCCF:13:1,2012-11-09T12:00:00Z,26.5255,-82.0032,2.447,6.1,1111122 
SCCF RECON,ioos:station:SCCF:13:1,2012-11-09T13:00:00Z,26.5255,-82.0032,2.49,6.2,1111122 
SCCF RECON,ioos:station:SCCF:13:1,2012-11-09T14:00:00Z,26.5255,-82.0032,2.521,6.35,1111122 
SCCF RECON,ioos:station:SCCF:13:1,2012-11-09T15:00:00Z,26.5255,-82.0032,2.517,6.43,1111122 
SCCF RECON,ioos:station:SCCF:13:1,2012-11-09T16:00:00Z,26.5255,-82.0032,2.45,6.26,1111122 
SCCF RECON,ioos:station:SCCF:13:1,2012-11-09T17:00:00Z,26.5255,-82.0032,2.37,6.31,1111122 
SCCF RECON,ioos:station:SCCF:13:1,2012-11-09T18:00:00Z,26.5255,-82.0032,2.289,6.36,1111122 
SCCF RECON,ioos:station:SCCF:13:1,2012-11-09T19:00:00Z,26.5255,-82.0032,2.22,7.05,1111122 
SCCF RECON,ioos:station:SCCF:13:1,2012-11-09T20:00:00Z,26.5255,-82.0032,2.18,7.17,1111122 
SCCF RECON,ioos:station:SCCF:13:1,2012-11-09T21:00:00Z,26.5255,-82.0032,2.171,7.19,1111122 
SCCF RECON,ioos:station:SCCF:13:1,2012-11-09T22:00:00Z,26.5255,-82.0032,2.258,7.23,1111122 
SCCF RECON,ioos:station:SCCF:13:1,2012-11-09T23:00:00Z,26.5255,-82.0032,2.375,6.56,1111122 
SCCF RECON,ioos:station:SCCF:13:1,2012-11-10T00:00:00Z,26.5255,-82.0032,2.463,6.71,1111122 
SCCF RECON,ioos:station:SCCF:13:1,2012-11-10T01:00:00Z,26.5255,-82.0032,2.539,6.85,1111122 
SCCF RECON,ioos:station:SCCF:13:1,2012-11-10T02:00:00Z,26.5255,-82.0032,2.6,7.34,1111122 
SCCF RECON,ioos:station:SCCF:13:1,2012-11-10T03:00:00Z,26.5255,-82.0032,2.63,7.26,1111122 
SCCF RECON,ioos:station:SCCF:13:1,2012-11-10T04:00:00Z,26.5255,-82.0032,2.601,7.19,1111122 
SCCF RECON,ioos:station:SCCF:13:1,2012-11-10T05:00:00Z,26.5255,-82.0032,2.51,7.05,1111122 
SCCF RECON,ioos:station:SCCF:13:1,2012-11-10T06:00:00Z,26.5255,-82.0032,2.384,6.94,1111122 
SCCF RECON,ioos:station:SCCF:13:1,2012-11-10T07:00:00Z,26.5255,-82.0032,2.29,7.0,1111122 
SCCF RECON,ioos:station:SCCF:13:1,2012-11-10T08:00:00Z,26.5255,-82.0032,2.24,7.15,1111122 
SCCF RECON,ioos:station:SCCF:13:1,2012-11-10T09:00:00Z,26.5255,-82.0032,2.208,7.08,1111122 
SCCF RECON,ioos:station:SCCF:13:1,2012-11-10T10:00:00Z,26.5255,-82.0032,2.22,7.09,1111122 
SCCF RECON,ioos:station:SCCF:13:1,2012-11-10T11:00:00Z,26.5255,-82.0032,2.31,7.05,1111122 
SCCF RECON,ioos:station:SCCF:13:1,2012-11-10T12:00:00Z,26.5255,-82.0032,2.42,6.74,1111122 
SCCF RECON,ioos:station:SCCF:13:1,2012-11-10T13:00:00Z,26.5255,-82.0032,2.5,6.67,1111122 
SCCF RECON,ioos:station:SCCF:13:1,2012-11-10T14:00:00Z,26.5255,-82.0032,2.571,6.85,1111122 
SCCF RECON,ioos:station:SCCF:13:1,2012-11-10T15:00:00Z,26.5255,-82.0032,2.629,6.9,1111122 
SCCF RECON,ioos:station:SCCF:13:1,2012-11-10T16:00:00Z,26.5255,-82.0032,2.636,7.02,1111122 
SCCF RECON,ioos:station:SCCF:13:1,2012-11-10T17:00:00Z,26.5255,-82.0032,2.576,7.18,1111122 
SCCF RECON,ioos:station:SCCF:13:1,2012-11-10T18:00:00Z,26.5255,-82.0032,2.474,6.89,1111122 
SCCF RECON,ioos:station:SCCF:13:1,2012-11-10T19:00:00Z,26.5255,-82.0032,2.38,6.98,1111122 
SCCF RECON,ioos:station:SCCF:13:1,2012-11-10T20:00:00Z,26.5255,-82.0032,2.313,7.04,1111122 
SCCF RECON,ioos:station:SCCF:13:1,2012-11-10T21:00:00Z,26.5255,-82.0032,2.291,7.17,1111122 
SCCF RECON,ioos:station:SCCF:13:1,2012-11-10T22:00:00Z,26.5255,-82.0032,2.34,7.12,1111122 
SCCF RECON,ioos:station:SCCF:13:1,2012-11-10T23:00:00Z,26.5255,-82.0032,2.441,7.02,1111122 
SCCF RECON,ioos:station:SCCF:13:1,2012-11-11T00:00:00Z,26.5255,-82.0032,2.549,6.76,1111122 
SCCF RECON,ioos:station:SCCF:13:1,2012-11-11T01:00:00Z,26.5255,-82.0032,2.61,7.15,1111122 
SCCF RECON,ioos:station:SCCF:13:1,2012-11-11T02:00:00Z,26.5255,-82.0032,2.671,7.48,1111122 
SCCF RECON,ioos:station:SCCF:13:1,2012-11-11T03:00:00Z,26.5255,-82.0032,2.722,7.59,1111122 
SCCF RECON,ioos:station:SCCF:13:1,2012-11-11T04:00:00Z,26.5255,-82.0032,2.71,7.37,1111122 
SCCF RECON,ioos:station:SCCF:13:1,2012-11-11T05:00:00Z,26.5255,-82.0032,2.62,7.23,1111122 
SCCF RECON,ioos:station:SCCF:13:1,2012-11-11T06:00:00Z,26.5255,-82.0032,2.5,7.15,1111122 
SCCF RECON,ioos:station:SCCF:13:1,2012-11-11T07:00:00Z,26.5255,-82.0032,2.38,7.01,1111122 
SCCF RECON,ioos:station:SCCF:13:1,2012-11-11T08:00:00Z,26.5255,-82.0032,2.3,7.12,1111122 
SCCF RECON,ioos:station:SCCF:13:1,2012-11-11T09:00:00Z,26.5255,-82.0032,2.22,7.08,1111122 
SCCF RECON,ioos:station:SCCF:13:1,2012-11-11T10:00:00Z,26.5255,-82.0032,2.16,7.05,1111122 
SCCF RECON,ioos:station:SCCF:13:1,2012-11-11T11:00:00Z,26.5255,-82.0032,2.2,6.96,1111122 
SCCF RECON,ioos:station:SCCF:13:1,2012-11-11T12:00:00Z,26.5255,-82.0032,2.34,7.04,1111122 
SCCF RECON,ioos:station:SCCF:13:1,2012-11-11T13:00:00Z,26.5255,-82.0032,2.45,6.73,1111122 
SCCF RECON,ioos:station:SCCF:13:1,2012-11-11T14:00:00Z,26.5255,-82.0032,2.522,6.77,1111122 
SCCF RECON,ioos:station:SCCF:13:1,2012-11-11T15:00:00Z,26.5255,-82.0032,2.604,6.86,1111122 
SCCF RECON,ioos:station:SCCF:13:1,2012-11-11T16:00:00Z,26.5255,-82.0032,2.67,6.96,1111122 
SCCF RECON,ioos:station:SCCF:13:1,2012-11-11T17:00:00Z,26.5255,-82.0032,2.69,7.1,1111122 
SCCF RECON,ioos:station:SCCF:13:1,2012-11-11T18:00:00Z,26.5255,-82.0032,2.65,7.26,1111122 
SCCF RECON,ioos:station:SCCF:13:1,2012-11-11T19:00:00Z,26.5255,-82.0032,2.56,7.22,1111122 
SCCF RECON,ioos:station:SCCF:13:1,2012-11-11T20:00:00Z,26.5255,-82.0032,2.477,7.3,1111122 
SCCF RECON,ioos:station:SCCF:13:1,2012-11-11T21:00:00Z,26.5255,-82.0032,2.44,7.16,1111122 